Time,TemperatureF,DewpointF,PressureIn,WindDirection,WindDirectionDegrees,WindSpeedMPH,WindSpeedGustMPH,Humidity,HourlyPrecipIn,Conditions,Clouds,dailyrainin,SoftwareType,DateUTC
2013-05-26 00:02:00,44.0,39.0,29.86,WSW,256,11.0,21.0,84,0.00,,,-99.99,,2013-05-26 04:02:00,
2013-05-26 00:12:00,44.0,39.0,29.86,WSW,256,11.0,21.0,84,0.00,,,-99.99,,2013-05-26 04:12:00,
2013-05-26 00:23:00,44.0,39.0,29.85,WSW,254,12.0,21.0,84,0.00,,,-99.99,,2013-05-26 04:23:00,
2013-05-26 00:33:00,44.0,39.0,29.85,WSW,253,11.0,23.0,84,0.00,,,-99.99,,2013-05-26 04:33:00,
2013-05-26 00:42:00,44.0,39.0,29.85,WSW,253,11.0,23.0,84,0.00,,,-99.99,,2013-05-26 04:42:00,
2013-05-26 00:52:00,44.0,39.0,29.84,NW,314,11.0,21.0,84,0.00,,,-99.99,,2013-05-26 04:52:00,
2013-05-26 01:02:00,44.0,39.0,29.84,WSW,246,7.0,18.0,84,0.00,,,-99.99,,2013-05-26 05:02:00,
2013-05-26 01:12:00,44.0,39.0,29.84,WSW,246,7.0,18.0,84,0.00,,,-99.99,,2013-05-26 05:12:00,
2013-05-26 01:22:00,44.0,39.0,29.83,West,267,5.0,17.0,84,0.00,,,-99.99,,2013-05-26 05:22:00,
2013-05-26 01:32:00,45.0,40.0,29.83,WNW,283,4.0,19.0,83,0.00,,,-99.99,,2013-05-26 05:32:00,
2013-05-26 01:42:00,45.0,40.0,29.83,WNW,283,4.0,19.0,83,0.00,,,-99.99,,2013-05-26 05:42:00,
2013-05-26 01:52:00,45.0,40.0,29.83,West,269,11.0,20.0,83,0.00,,,-99.99,,2013-05-26 05:52:00,
2013-05-26 02:01:00,45.0,40.0,29.82,West,272,4.0,18.0,83,0.00,,,-99.99,,2013-05-26 06:01:00,
2013-05-26 02:12:00,45.0,40.0,29.82,West,272,4.0,18.0,83,0.00,,,-99.99,,2013-05-26 06:12:00,
2013-05-26 02:22:00,45.0,40.0,29.82,WNW,300,6.0,21.0,82,0.00,,,-99.99,,2013-05-26 06:22:00,
2013-05-26 02:32:00,45.0,40.0,29.81,North,350,7.0,15.0,82,0.00,,,-99.99,,2013-05-26 06:32:00,
2013-05-26 02:42:00,45.0,40.0,29.81,North,350,7.0,15.0,82,0.00,,,-99.99,,2013-05-26 06:42:00,
2013-05-26 02:52:00,46.0,40.0,29.82,WNW,286,5.0,16.0,80,0.00,,,-99.99,,2013-05-26 06:52:00,
2013-05-26 03:01:00,46.0,40.0,29.82,WSW,252,4.0,18.0,80,0.00,,,-99.99,,2013-05-26 07:01:00,
2013-05-26 03:11:00,46.0,40.0,29.82,WSW,252,4.0,18.0,80,0.00,,,-99.99,,2013-05-26 07:11:00,
2013-05-26 03:22:00,46.0,40.0,29.81,WNW,286,3.0,12.0,80,0.00,,,-99.99,,2013-05-26 07:22:00,
2013-05-26 03:32:00,46.0,40.0,29.81,WNW,291,4.0,13.0,79,0.00,,,-99.99,,2013-05-26 07:32:00,
2013-05-26 03:42:00,46.0,40.0,29.81,WNW,291,4.0,13.0,79,0.00,,,-99.99,,2013-05-26 07:42:00,
2013-05-26 03:52:00,46.0,40.0,29.81,WSW,255,4.0,12.0,79,0.00,,,-99.99,,2013-05-26 07:52:00,
2013-05-26 04:01:00,46.0,40.0,29.80,West,262,8.0,21.0,78,0.00,,,-99.99,,2013-05-26 08:01:00,
2013-05-26 04:12:00,46.0,40.0,29.80,West,262,8.0,21.0,78,0.00,,,-99.99,,2013-05-26 08:12:00,
2013-05-26 04:21:00,46.0,40.0,29.80,NNW,327,6.0,13.0,78,0.00,,,-99.99,,2013-05-26 08:21:00,
2013-05-26 04:32:00,46.0,40.0,29.81,West,263,4.0,17.0,79,0.00,,,-99.99,,2013-05-26 08:32:00,
2013-05-26 04:42:00,46.0,40.0,29.81,West,263,4.0,17.0,79,0.00,,,-99.99,,2013-05-26 08:42:00,
2013-05-26 04:53:00,46.0,41.0,29.81,WSW,251,5.0,13.0,81,0.00,,,-99.99,,2013-05-26 08:53:00,
2013-05-26 05:01:00,46.0,40.0,29.81,NW,313,2.0,11.0,80,0.00,,,-99.99,,2013-05-26 09:01:00,
2013-05-26 05:11:00,46.0,41.0,29.81,NNW,330,2.0,20.0,81,0.00,,,-99.99,,2013-05-26 09:11:00,
2013-05-26 05:21:00,46.0,41.0,29.81,NNW,330,2.0,20.0,81,0.00,,,-99.99,,2013-05-26 09:21:00,
2013-05-26 05:33:00,46.0,41.0,29.82,WNW,290,3.0,12.0,81,0.00,,,-99.99,,2013-05-26 09:33:00,
2013-05-26 05:42:00,46.0,41.0,29.82,WNW,290,3.0,12.0,81,0.00,,,-99.99,,2013-05-26 09:42:00,
2013-05-26 05:53:00,46.0,41.0,29.83,WSW,252,5.0,20.0,81,0.00,,,-99.99,,2013-05-26 09:53:00,
2013-05-26 06:02:00,46.0,41.0,29.83,West,259,10.0,21.0,81,0.00,,,-99.99,,2013-05-26 10:02:00,
2013-05-26 06:12:00,46.0,41.0,29.83,West,259,10.0,21.0,81,0.00,,,-99.99,,2013-05-26 10:12:00,
2013-05-26 06:23:00,46.0,41.0,29.83,WSW,256,8.0,20.0,81,0.00,,,-99.99,,2013-05-26 10:23:00,
2013-05-26 06:33:00,46.0,40.0,29.83,WSW,248,5.0,27.0,80,0.00,,,-99.99,,2013-05-26 10:33:00,
2013-05-26 06:42:00,46.0,41.0,29.83,West,273,8.0,16.0,81,0.00,,,-99.99,,2013-05-26 10:42:00,
2013-05-26 06:52:00,46.0,41.0,29.83,West,273,8.0,16.0,81,0.00,,,-99.99,,2013-05-26 10:52:00,
2013-05-26 07:03:00,46.0,40.0,29.83,West,277,5.0,17.0,80,0.00,,,-99.99,,2013-05-26 11:03:00,
2013-05-26 07:11:00,46.0,40.0,29.83,West,277,5.0,17.0,80,0.00,,,-99.99,,2013-05-26 11:11:00,
2013-05-26 07:22:00,46.0,40.0,29.84,West,268,4.0,24.0,80,0.00,,,-99.99,,2013-05-26 11:22:00,
2013-05-26 07:32:00,46.0,40.0,29.84,West,267,7.0,20.0,79,0.00,,,-99.99,,2013-05-26 11:32:00,
2013-05-26 07:42:00,46.0,40.0,29.84,West,267,7.0,20.0,79,0.00,,,-99.99,,2013-05-26 11:42:00,
2013-05-26 07:52:00,47.0,41.0,29.85,WNW,298,5.0,16.0,80,0.00,,,-99.99,,2013-05-26 11:52:00,
2013-05-26 08:02:00,47.0,41.0,29.86,NW,309,3.0,20.0,79,0.00,,,-99.99,,2013-05-26 12:02:00,
2013-05-26 08:12:00,47.0,41.0,29.86,NW,309,3.0,20.0,79,0.00,,,-99.99,,2013-05-26 12:12:00,
2013-05-26 08:21:00,47.0,41.0,29.86,West,267,8.0,19.0,78,0.00,,,-99.99,,2013-05-26 12:21:00,
2013-05-26 08:32:00,47.0,41.0,29.86,West,266,5.0,20.0,78,0.00,,,-99.99,,2013-05-26 12:32:00,
2013-05-26 08:42:00,47.0,41.0,29.86,West,266,5.0,20.0,78,0.00,,,-99.99,,2013-05-26 12:42:00,
2013-05-26 08:52:00,47.0,41.0,29.87,West,264,6.0,24.0,79,0.00,,,-99.99,,2013-05-26 12:52:00,
2013-05-26 09:02:00,48.0,41.0,29.88,WSW,253,12.0,19.0,78,0.00,,,-99.99,,2013-05-26 13:02:00,
2013-05-26 09:11:00,48.0,41.0,29.88,WSW,253,12.0,19.0,78,0.00,,,-99.99,,2013-05-26 13:11:00,
2013-05-26 09:21:00,48.0,41.0,29.88,WNW,287,8.0,28.0,77,0.00,,,-99.99,,2013-05-26 13:21:00,
2013-05-26 09:32:00,49.0,42.0,29.89,West,259,7.0,18.0,76,0.00,,,-99.99,,2013-05-26 13:32:00,
2013-05-26 09:42:00,49.0,42.0,29.89,WSW,257,4.0,7.0,76,0.00,,,-99.99,,2013-05-26 13:42:00,
2013-05-26 09:52:00,49.0,42.0,29.89,WSW,257,4.0,7.0,76,0.00,,,-99.99,,2013-05-26 13:52:00,
2013-05-26 10:02:00,49.0,41.0,29.89,WNW,284,2.0,17.0,75,0.00,,,-99.99,,2013-05-26 14:02:00,
2013-05-26 10:11:00,49.0,41.0,29.89,WNW,284,2.0,17.0,75,0.00,,,-99.99,,2013-05-26 14:11:00,
2013-05-26 10:21:00,49.0,41.0,29.90,West,263,6.0,18.0,75,0.00,,,-99.99,,2013-05-26 14:21:00,
2013-05-26 10:32:00,50.0,42.0,29.90,West,269,10.0,15.0,74,0.00,,,-99.99,,2013-05-26 14:32:00,
2013-05-26 10:42:00,50.0,42.0,29.90,WNW,286,3.0,17.0,73,0.00,,,-99.99,,2013-05-26 14:42:00,
2013-05-26 10:52:00,50.0,42.0,29.90,WNW,286,3.0,17.0,73,0.00,,,-99.99,,2013-05-26 14:52:00,
2013-05-26 11:01:00,51.0,42.0,29.90,West,276,4.0,22.0,71,0.00,,,-99.99,,2013-05-26 15:01:00,
2013-05-26 11:12:00,51.0,42.0,29.90,West,276,4.0,22.0,71,0.00,,,-99.99,,2013-05-26 15:12:00,
2013-05-26 11:22:00,52.0,42.0,29.90,WSW,257,5.0,16.0,69,0.00,,,-99.99,,2013-05-26 15:22:00,
2013-05-26 11:33:00,53.0,43.0,29.90,WNW,298,6.0,22.0,69,0.00,,,-99.99,,2013-05-26 15:33:00,
2013-05-26 11:43:00,52.0,43.0,29.91,WNW,292,8.0,15.0,70,0.00,,,-99.99,,2013-05-26 15:43:00,
2013-05-26 11:53:00,52.0,43.0,29.91,WNW,292,8.0,15.0,70,0.00,,,-99.99,,2013-05-26 15:53:00,
2013-05-26 12:03:00,52.0,43.0,29.91,West,267,7.0,18.0,70,0.00,,,-99.99,,2013-05-26 16:03:00,
2013-05-26 12:12:00,51.0,44.0,29.91,NE,51,1.0,13.0,76,0.00,,,-99.99,,2013-05-26 16:12:00,
2013-05-26 12:23:00,51.0,44.0,29.91,NE,51,1.0,13.0,76,0.00,,,-99.99,,2013-05-26 16:23:00,
2013-05-26 12:33:00,52.0,43.0,29.91,West,265,3.0,13.0,72,0.00,,,-99.99,,2013-05-26 16:33:00,
2013-05-26 12:42:00,53.0,45.0,29.92,West,271,5.0,19.0,73,0.00,,,-99.99,,2013-05-26 16:42:00,
2013-05-26 12:53:00,53.0,45.0,29.92,West,271,5.0,19.0,73,0.00,,,-99.99,,2013-05-26 16:53:00,
2013-05-26 13:02:00,52.0,43.0,29.92,WNW,294,4.0,22.0,71,0.00,,,-99.99,,2013-05-26 17:02:00,
2013-05-26 13:11:00,55.0,45.0,29.92,West,279,2.0,7.0,70,0.00,,,-99.99,,2013-05-26 17:11:00,
2013-05-26 13:22:00,55.0,45.0,29.92,West,279,2.0,7.0,70,0.00,,,-99.99,,2013-05-26 17:22:00,
2013-05-26 13:32:00,54.0,43.0,29.92,West,271,8.0,15.0,66,0.00,,,-99.99,,2013-05-26 17:32:00,
2013-05-26 13:42:00,54.0,43.0,29.93,WSW,251,7.0,22.0,66,0.00,,,-99.99,,2013-05-26 17:42:00,
2013-05-26 13:52:00,54.0,43.0,29.93,WSW,251,7.0,22.0,66,0.00,,,-99.99,,2013-05-26 17:52:00,
2013-05-26 14:01:00,52.0,43.0,29.94,West,263,4.0,19.0,72,0.00,,,-99.99,,2013-05-26 18:01:00,
2013-05-26 14:12:00,52.0,43.0,29.94,West,263,4.0,19.0,72,0.00,,,-99.99,,2013-05-26 18:12:00,
2013-05-26 14:21:00,53.0,44.0,29.94,West,264,8.0,26.0,72,0.00,,,-99.99,,2013-05-26 18:21:00,
2013-05-26 14:32:00,53.0,44.0,29.95,WSW,246,7.0,17.0,71,0.00,,,-99.99,,2013-05-26 18:32:00,
2013-05-26 14:42:00,50.0,45.0,29.96,West,276,6.0,13.0,82,0.00,,,-99.99,,2013-05-26 18:42:00,
2013-05-26 14:52:00,50.0,45.0,29.96,West,276,6.0,13.0,82,0.00,,,-99.99,,2013-05-26 18:52:00,
2013-05-26 15:01:00,51.0,46.0,29.95,West,261,5.0,10.0,82,0.01,,,-99.99,,2013-05-26 19:01:00,
2013-05-26 15:11:00,51.0,46.0,29.95,West,261,5.0,10.0,82,0.01,,,-99.99,,2013-05-26 19:11:00,
2013-05-26 15:22:00,51.0,44.0,29.96,WNW,282,3.0,15.0,76,0.01,,,-99.99,,2013-05-26 19:22:00,
2013-05-26 15:32:00,52.0,44.0,29.97,West,272,3.0,25.0,73,0.01,,,-99.99,,2013-05-26 19:32:00,
2013-05-26 15:42:00,52.0,43.0,29.98,NE,51,2.0,27.0,72,0.01,,,-99.99,,2013-05-26 19:42:00,
2013-05-26 15:52:00,52.0,43.0,29.98,NE,51,2.0,27.0,72,0.01,,,-99.99,,2013-05-26 19:52:00,
2013-05-26 16:02:00,52.0,44.0,29.98,WSW,250,3.0,13.0,73,0.00,,,-99.99,,2013-05-26 20:02:00,
2013-05-26 16:11:00,52.0,44.0,29.98,WSW,250,3.0,13.0,73,0.00,,,-99.99,,2013-05-26 20:11:00,
2013-05-26 16:22:00,52.0,44.0,29.99,West,269,3.0,15.0,73,0.00,,,-99.99,,2013-05-26 20:22:00,
2013-05-26 16:32:00,52.0,43.0,29.99,WSW,257,2.0,6.0,70,0.00,,,-99.99,,2013-05-26 20:32:00,
2013-05-26 16:42:00,52.0,43.0,30.00,ENE,65,2.0,4.0,70,0.00,,,-99.99,,2013-05-26 20:42:00,
2013-05-26 16:52:00,52.0,43.0,30.00,ENE,65,2.0,4.0,70,0.00,,,-99.99,,2013-05-26 20:52:00,
2013-05-26 17:02:00,52.0,43.0,30.00,West,281,1.0,6.0,72,0.00,,,-99.99,,2013-05-26 21:02:00,
2013-05-26 17:11:00,52.0,43.0,30.00,West,281,1.0,6.0,72,0.00,,,-99.99,,2013-05-26 21:11:00,
2013-05-26 17:22:00,53.0,44.0,30.00,West,259,1.0,4.0,71,0.00,,,0.04,,2013-05-26 21:22:00,
2013-05-26 17:33:00,53.0,43.0,30.00,WSW,254,0.0,4.0,69,0.00,,,0.04,,2013-05-26 21:33:00,
2013-05-26 17:43:00,54.0,43.0,30.00,West,266,0.0,13.0,67,0.00,,,0.04,,2013-05-26 21:43:00,
2013-05-26 17:53:00,54.0,43.0,30.00,West,266,0.0,13.0,67,0.00,,,0.04,,2013-05-26 21:53:00,
2013-05-26 18:03:00,56.0,43.0,30.00,North,9,2.0,4.0,61,0.00,,,0.04,,2013-05-26 22:03:00,
2013-05-26 18:12:00,58.0,43.0,30.00,NNE,18,2.0,7.0,58,0.00,,,0.03,,2013-05-26 22:12:00,
2013-05-26 18:23:00,58.0,43.0,30.00,NNE,18,2.0,7.0,58,0.00,,,0.03,,2013-05-26 22:23:00,
2013-05-26 18:33:00,57.0,41.0,30.00,North,9,4.0,9.0,56,0.00,,,0.03,,2013-05-26 22:33:00,
2013-05-26 18:42:00,57.0,43.0,30.00,WNW,284,1.0,5.0,59,0.00,,,0.03,,2013-05-26 22:42:00,
2013-05-26 18:53:00,57.0,43.0,30.00,WNW,284,1.0,5.0,59,0.00,,,0.03,,2013-05-26 22:53:00,
2013-05-26 19:02:00,56.0,43.0,30.01,West,261,1.0,4.0,61,0.00,,,0.03,,2013-05-26 23:02:00,
2013-05-26 19:12:00,56.0,43.0,30.01,WSW,257,0.0,3.0,61,0.00,,,0.03,,2013-05-26 23:12:00,
2013-05-26 19:22:00,56.0,43.0,30.01,WSW,257,0.0,3.0,61,0.00,,,0.03,,2013-05-26 23:22:00,
2013-05-26 19:32:00,56.0,43.0,30.01,WSW,257,1.0,4.0,62,0.00,,,0.03,,2013-05-26 23:32:00,
2013-05-26 19:43:00,55.0,42.0,30.02,West,264,3.0,5.0,61,0.00,,,0.03,,2013-05-26 23:43:00,
2013-05-26 19:52:00,55.0,42.0,30.02,West,264,3.0,5.0,61,0.00,,,0.03,,2013-05-26 23:52:00,
2013-05-26 20:02:00,55.0,41.0,30.02,West,265,0.0,3.0,60,0.00,,,0.03,,2013-05-27 00:02:00,
2013-05-26 20:11:00,54.0,41.0,30.03,WSW,249,2.0,7.0,61,0.00,,,0.03,,2013-05-27 00:11:00,
2013-05-26 20:22:00,54.0,41.0,30.03,WSW,249,2.0,7.0,61,0.00,,,0.03,,2013-05-27 00:22:00,
2013-05-26 20:32:00,55.0,40.0,30.02,West,268,6.0,12.0,57,0.00,,,0.03,,2013-05-27 00:32:00,
2013-05-26 20:42:00,55.0,40.0,30.02,WSW,248,5.0,12.0,57,0.00,,,0.03,,2013-05-27 00:42:00,
2013-05-26 20:52:00,55.0,40.0,30.02,WSW,248,5.0,12.0,57,0.00,,,0.03,,2013-05-27 00:52:00,
2013-05-26 21:01:00,54.0,39.0,30.02,WSW,254,5.0,13.0,57,0.00,,,0.03,,2013-05-27 01:01:00,
2013-05-26 21:11:00,54.0,39.0,30.02,WSW,254,5.0,13.0,57,0.00,,,0.03,,2013-05-27 01:11:00,
2013-05-26 21:22:00,54.0,40.0,30.03,WSW,252,6.0,12.0,58,0.00,,,0.02,,2013-05-27 01:22:00,
2013-05-26 21:32:00,54.0,40.0,30.03,WSW,252,4.0,13.0,58,0.00,,,0.02,,2013-05-27 01:32:00,
2013-05-26 21:42:00,54.0,39.0,30.03,WSW,241,9.0,18.0,56,0.00,,,0.02,,2013-05-27 01:42:00,
2013-05-26 21:52:00,54.0,39.0,30.03,WSW,241,9.0,18.0,56,0.00,,,0.02,,2013-05-27 01:52:00,
2013-05-26 22:02:00,54.0,39.0,30.03,West,261,6.0,17.0,56,0.00,,,0.02,,2013-05-27 02:02:00,
2013-05-26 22:11:00,54.0,39.0,30.03,West,260,8.0,17.0,56,0.00,,,0.01,,2013-05-27 02:11:00,
2013-05-26 22:22:00,54.0,39.0,30.03,West,260,8.0,17.0,56,0.00,,,0.01,,2013-05-27 02:22:00,
2013-05-26 22:32:00,54.0,38.0,30.04,West,275,11.0,20.0,55,0.00,,,0.01,,2013-05-27 02:32:00,
2013-05-26 22:42:00,54.0,38.0,30.04,West,259,11.0,22.0,54,0.00,,,0.01,,2013-05-27 02:42:00,
2013-05-26 22:52:00,54.0,38.0,30.04,West,259,11.0,22.0,54,0.00,,,0.01,,2013-05-27 02:52:00,
2013-05-26 23:02:00,54.0,38.0,30.05,West,269,8.0,21.0,55,0.00,,,0.01,,2013-05-27 03:02:00,
2013-05-26 23:11:00,54.0,38.0,30.05,West,269,8.0,21.0,55,0.00,,,0.01,,2013-05-27 03:11:00,
2013-05-26 23:21:00,53.0,38.0,30.05,WSW,242,10.0,19.0,56,0.00,,,0.01,,2013-05-27 03:21:00,
2013-05-26 23:33:00,53.0,38.0,30.05,WSW,245,8.0,22.0,56,0.00,,,0.01,,2013-05-27 03:33:00,
2013-05-26 23:43:00,53.0,38.0,30.05,WSW,247,12.0,19.0,56,0.00,,,0.01,,2013-05-27 03:43:00,
2013-05-26 23:53:00,53.0,38.0,30.05,WSW,247,12.0,19.0,56,0.00,,,0.01,,2013-05-27 03:53:00,